| time (UTC) | temp F | wind direction | speed knots | gust knots | rain 1hr in | rain 24hr in | rain mn in | humidity % | barometer mb |
| 20260507051532 | 44 | 0 | 0.9 | 6.1 | 0.00 | 0.57 | 0.00 | 92 | 1013.2 |
| 20260507050036 | 44 | 0 | 0.9 | 7.8 | 0.00 | 0.57 | 0.00 | 92 | 1013.1 |
| 20260507044539 | 44 | 65 | 1.7 | 7.0 | 0.00 | 0.65 | 0.00 | 93 | 1012.9 |
| 20260507043035 | 44 | 5 | 0.9 | 7.8 | 0.00 | 0.65 | 0.00 | 93 | 1012.6 |
| 20260507041541 | 44 | 0 | 0.9 | 5.2 | 0.00 | 0.65 | 0.00 | 93 | 1012.5 |
| 20260507040036 | 44 | 0 | 0.0 | 4.3 | 0.00 | 0.65 | 0.00 | 93 | 1012.3 |
| 20260507034530 | 44 | 0 | 0.0 | 4.3 | 0.00 | 0.66 | 0.00 | 93 | 1012.3 |
| 20260507033037 | 44 | 347 | 0.0 | 3.5 | 0.00 | 0.66 | 0.00 | 93 | 1012.1 |
| 20260507031539 | 44 | 67 | 0.0 | 3.5 | 0.00 | 0.66 | 0.00 | 93 | 1012.0 |
| 20260507030047 | 44 | 30 | 0.9 | 5.2 | 0.00 | 0.66 | 0.00 | 93 | 1011.9 |
| 20260507024541 | 44 | 0 | 0.0 | 5.2 | 0.00 | 0.66 | 0.00 | 93 | 1011.8 |
| 20260507023034 | 44 | 87 | 0.0 | 5.2 | 0.00 | 0.66 | 0.00 | 93 | 1011.7 |
| 20260507021539 | 44 | 0 | 0.0 | 4.3 | 0.00 | 0.66 | 0.00 | 93 | 1011.7 |
| 20260507020039 | 44 | 0 | 1.7 | 7.0 | 0.00 | 0.66 | 0.00 | 93 | 1011.5 |
| 20260507014545 | 44 | 0 | 0.0 | 2.6 | 0.00 | 0.66 | 0.00 | 93 | 1011.5 |
| 20260507013038 | 44 | 0 | 0.9 | 4.3 | 0.00 | 0.66 | 0.00 | 93 | 1011.5 |
| 20260507011533 | 44 | 0 | 0.0 | 3.5 | 0.00 | 0.66 | 0.00 | 94 | 1011.1 |
| 20260507010038 | 44 | 84 | 0.9 | 6.1 | 0.00 | 0.66 | 0.00 | 94 | 1010.9 |
| 20260507004536 | 44 | 0 | 0.9 | 5.2 | 0.00 | 0.66 | 0.00 | 94 | 1011.1 |
| 20260507003039 | 44 | 34 | 0.9 | 5.2 | 0.00 | 0.66 | 0.00 | 94 | 1011.0 |
| 20260507001540 | 44 | 0 | 0.0 | 2.6 | 0.00 | 0.66 | 0.00 | 94 | 1010.9 |
| 20260507000040 | 44 | 0 | 0.0 | 7.0 | 0.00 | 0.66 | 0.00 | 94 | 1011.0 |
| 20260506234534 | 43 | 59 | 0.0 | 3.5 | 0.00 | 0.66 | 0.00 | 93 | 1010.7 |
| 20260506233035 | 44 | 44 | 0.0 | 3.5 | 0.00 | 0.66 | 0.00 | 94 | 1010.7 |
| 20260506231538 | 44 | 0 | 0.9 | 7.8 | 0.00 | 0.66 | 0.00 | 93 | 1010.7 |
| 20260506230037 | 44 | 0 | 1.7 | 7.0 | 0.00 | 0.66 | 0.00 | 93 | 1010.4 |
| 20260506224535 | 44 | 19 | 1.7 | 10.4 | 0.00 | 0.66 | 0.00 | 94 | 1010.6 |
| 20260506223036 | 44 | 5 | 0.9 | 7.8 | 0.00 | 0.66 | 0.00 | 94 | 1010.4 |
| 20260506221536 | 44 | 88 | 2.6 | 8.7 | 0.00 | 0.66 | 0.00 | 94 | 1010.6 |
| 20260506220033 | 44 | 62 | 0.9 | 6.1 | 0.00 | 0.66 | 0.00 | 94 | 1010.6 |
| 20260506214532 | 44 | 64 | 0.9 | 5.2 | 0.00 | 0.66 | 0.66 | 94 | 1010.7 |
| 20260506213036 | 44 | 0 | 0.0 | 7.8 | 0.00 | 0.66 | 0.66 | 94 | 1010.5 |
| 20260506211535 | 44 | 35 | 1.7 | 7.0 | 0.00 | 0.66 | 0.66 | 94 | 1010.2 |
| 20260506210034 | 44 | 74 | 1.7 | 7.8 | 0.00 | 0.66 | 0.66 | 94 | 1009.9 |
| 20260506204535 | 44 | 0 | 0.9 | 7.8 | 0.00 | 0.66 | 0.66 | 94 | 1009.9 |
| 20260506203037 | 44 | 0 | 1.7 | 5.2 | 0.00 | 0.66 | 0.66 | 94 | 1010.2 |
| 20260506201536 | 44 | 0 | 0.0 | 3.5 | 0.00 | 0.66 | 0.66 | 94 | 1010.0 |
| 20260506200036 | 44 | 0 | 0.9 | 5.2 | 0.00 | 0.66 | 0.66 | 94 | 1009.9 |
| 20260506194537 | 44 | 44 | 0.0 | 4.3 | 0.00 | 0.66 | 0.66 | 94 | 1009.9 |
| 20260506193033 | 44 | 68 | 1.7 | 4.3 | 0.00 | 0.66 | 0.66 | 94 | 1010.0 |
| 20260506191538 | 44 | 0 | 0.9 | 6.1 | 0.00 | 0.66 | 0.66 | 94 | 1009.9 |
| 20260506190037 | 45 | 65 | 0.9 | 5.2 | 0.00 | 0.66 | 0.66 | 94 | 1009.6 |
| 20260506184534 | 45 | 0 | 0.0 | 4.3 | 0.00 | 0.66 | 0.66 | 95 | 1009.6 |
| 20260506183039 | 45 | 74 | 0.9 | 5.2 | 0.00 | 0.66 | 0.66 | 95 | 1009.5 |
| 20260506181537 | 46 | 0 | 0.9 | 7.8 | 0.00 | 0.66 | 0.66 | 95 | 1009.1 |
| 20260506180046 | 47 | 0 | 0.0 | 7.8 | 0.00 | 0.66 | 0.66 | 95 | 1009.0 |
| 20260506174541 | 48 | 58 | 0.9 | 6.1 | 0.00 | 0.66 | 0.66 | 95 | 1008.9 |
| 20260506173035 | 49 | 36 | 1.7 | 6.1 | 0.00 | 0.66 | 0.66 | 96 | 1008.8 |
| 20260506171533 | 49 | 57 | 0.9 | 5.2 | 0.00 | 0.66 | 0.66 | 96 | 1008.6 |
| 20260506170032 | 49 | 30 | 0.9 | 7.0 | 0.00 | 0.66 | 0.66 | 96 | 1008.4 |
| 20260506164538 | 49 | 51 | 0.9 | 7.0 | 0.00 | 0.66 | 0.66 | 96 | 1008.3 |
| 20260506163056 | 50 | 98 | 1.7 | 7.0 | 0.00 | 0.66 | 0.66 | 96 | 1008.1 |
| 20260506161535 | 50 | 336 | 0.0 | 2.6 | 0.00 | 0.66 | 0.66 | 97 | 1008.0 |
| 20260506160034 | 50 | 5 | 0.0 | 2.6 | 0.00 | 0.66 | 0.66 | 97 | 1008.0 |
| 20260506154532 | 50 | 0 | 0.9 | 4.3 | 0.00 | 0.66 | 0.66 | 97 | 1008.1 |
| 20260506153041 | 50 | 286 | 0.9 | 3.5 | 0.00 | 0.66 | 0.66 | 97 | 1008.0 |
| 20260506151535 | 50 | 302 | 0.0 | 2.6 | 0.00 | 0.66 | 0.66 | 97 | 1008.0 |
| 20260506150036 | 50 | 0 | 0.0 | 7.8 | 0.00 | 0.66 | 0.66 | 97 | 1008.1 |
| 20260506144534 | 50 | 71 | 0.9 | 7.8 | 0.00 | 0.67 | 0.66 | 98 | 1007.9 |
| 20260506143043 | 50 | 0 | 1.7 | 7.0 | 0.00 | 0.67 | 0.66 | 98 | 1007.9 |
| 20260506141541 | 50 | 86 | 0.9 | 6.1 | 0.00 | 0.67 | 0.66 | 98 | 1007.8 |
| 20260506140035 | 50 | 300 | 0.9 | 5.2 | 0.01 | 0.67 | 0.66 | 98 | 1008.0 |
| 20260506134537 | 50 | 0 | 0.9 | 5.2 | 0.02 | 0.67 | 0.66 | 98 | 1008.0 |
| 20260506133033 | 49 | 59 | 0.0 | 7.0 | 0.03 | 0.66 | 0.65 | 98 | 1007.9 |
| 20260506131530 | 49 | 0 | 0.0 | 4.3 | 0.04 | 0.66 | 0.65 | 98 | 1007.8 |
| 20260506130036 | 49 | 5 | 0.9 | 4.3 | 0.03 | 0.66 | 0.64 | 98 | 1007.7 |
| 20260506124529 | 49 | 0 | 0.0 | 1.7 | 0.05 | 0.65 | 0.63 | 98 | 1007.7 |
| 20260506123038 | 49 | 60 | 0.9 | 4.3 | 0.05 | 0.63 | 0.62 | 98 | 1007.7 |
| 20260506121539 | 48 | 0 | 0.0 | 4.3 | 0.06 | 0.62 | 0.60 | 98 | 1007.4 |
| 20260506120038 | 48 | 350 | 0.9 | 5.2 | 0.09 | 0.62 | 0.60 | 98 | 1007.2 |
| 20260506114543 | 48 | 17 | 0.0 | 3.5 | 0.08 | 0.59 | 0.58 | 98 | 1007.2 |
| 20260506113038 | 48 | 0 | 0.9 | 3.5 | 0.09 | 0.58 | 0.56 | 98 | 1007.2 |
| 20260506111539 | 48 | 71 | 0.9 | 5.2 | 0.09 | 0.55 | 0.53 | 98 | 1007.0 |
| 20260506110034 | 48 | 82 | 0.9 | 5.2 | 0.09 | 0.52 | 0.51 | 98 | 1006.8 |
| 20260506104538 | 48 | 0 | 1.7 | 5.2 | 0.09 | 0.51 | 0.49 | 98 | 1006.9 |
| 20260506103039 | 49 | 0 | 0.0 | 3.5 | 0.08 | 0.48 | 0.46 | 98 | 1006.9 |
| 20260506101536 | 49 | 0 | 0.0 | 3.5 | 0.07 | 0.45 | 0.44 | 98 | 1006.9 |
| 20260506100039 | 49 | 0 | 0.9 | 7.8 | 0.05 | 0.43 | 0.41 | 98 | 1006.9 |
| 20260506094543 | 49 | 349 | 0.0 | 7.0 | 0.04 | 0.41 | 0.40 | 97 | 1006.8 |
| 20260506093038 | 49 | 43 | 0.9 | 4.3 | 0.03 | 0.39 | 0.37 | 98 | 1006.8 |
| 20260506091538 | 49 | 72 | 0.9 | 7.0 | 0.03 | 0.37 | 0.36 | 98 | 1006.7 |
| 20260506090038 | 49 | 36 | 1.7 | 7.0 | 0.03 | 0.37 | 0.36 | 97 | 1006.6 |
| 20260506084537 | 50 | 0 | 0.9 | 6.1 | 0.04 | 0.40 | 0.35 | 98 | 1006.5 |
| 20260506083035 | 50 | 340 | 0.9 | 7.0 | 0.03 | 0.38 | 0.33 | 98 | 1006.5 |
| 20260506081532 | 50 | 139 | 0.9 | 7.0 | 0.02 | 0.37 | 0.32 | 98 | 1006.5 |
| 20260506073042 | 49 | 69 | 0.0 | 3.5 | 0.05 | 0.43 | 0.30 | 97 | 1006.5 |
| 20260506071535 | 49 | 67 | 0.9 | 4.3 | 0.06 | 0.41 | 0.29 | 97 | 1006.4 |
| 20260506061536 | 49 | 5 | 0.0 | 5.2 | 0.08 | 0.38 | 0.22 | 97 | 1006.5 |